Waarnemingen

Advertentie
Mijn weer
Estaca de Bares, Spanje (8004): temperatuur & dauwpunt: 12.02.2019 20:00:00 - 18.02.2019 20:00:00 (CET)Estaca de Bares, Spanje (8004): windsnelheid & windstoten: 12.02.2019 20:00:00 - 18.02.2019 20:00:00 (CET)Estaca de Bares, Spanje (8004): windrichting: 12.02.2019 20:00:00 - 18.02.2019 20:00:00 (CET)Estaca de Bares, Spanje (8004): luchtdruk: 12.02.2019 20:00:00 - 18.02.2019 20:00:00 (CET)Estaca de Bares, Spanje (8004): zicht: 12.02.2019 20:00:00 - 18.02.2019 20:00:00 (CET)Estaca de Bares, Spanje (8004): Zonneschijnduur: 12.02.2019 20:00:00 - 18.02.2019 20:00:00 (CET)Estaca de Bares, Spanje (8004): neerslag: 12.02.2019 20:00:00 - 18.02.2019 20:00:00 (CET)
Datum & Tijd tt [°C] td [°C] ff [km/u] ff [kn] fx [km/u] fx [kn] dd ppp [hPa] vv [km] sd [min] rr [mm]
18.02.2019 20:00:00 - - - - - - - - - - -
18.02.2019 19:00:00 10,2 5,8 16 9 32 18 WNW 1019,7 20 19 -
18.02.2019 18:00:00 10,8 5,3 23 12 28 15 WNW 1019,0 20 42 0,0
18.02.2019 17:00:00 12,9 8,0 16 9 22 12 W 1018,9 20 60 0,0
18.02.2019 16:00:00 12,7 9,2 19 10 23 13 W 1018,8 20 32 0,0
18.02.2019 15:00:00 10,7 8,0 16 9 21 11 W 1019,1 20 0 0,0
18.02.2019 14:00:00 10,3 7,4 17 9 19 11 W 1019,1 20 0 0,0
18.02.2019 13:00:00 9,5 6,7 7 4 12 7 ZW 1019,3 20 0 -
18.02.2019 12:00:00 8,9 6,5 9 5 25 14 ZW 1019,2 20 0 3,0
18.02.2019 11:00:00 9,0 6,2 3 2 11 6 ZO 1019,0 20 0 0,8
18.02.2019 10:00:00 9,0 6,4 4 2 9 5 ZZO 1018,6 20 0 0,2
18.02.2019 09:00:00 8,8 6,2 5 3 19 10 W 1018,1 20 0 0,2
18.02.2019 08:00:00 8,6 6,1 8 4 24 13 W 1017,3 20 0 0,0
18.02.2019 07:00:00 8,4 6,2 20 11 29 16 WZW 1017,0 20 0 -
18.02.2019 06:00:00 8,7 6,5 16 8 21 11 W 1017,0 20 0 0,0
18.02.2019 05:00:00 8,7 6,5 14 8 23 12 W 1016,7 20 0 0,2
18.02.2019 04:00:00 8,6 6,4 19 10 24 13 W 1017,0 20 0 0,0
18.02.2019 03:00:00 8,8 6,4 15 8 18 10 W 1017,3 20 0 0,2
18.02.2019 02:00:00 8,9 6,7 8 4 23 13 WZW 1017,3 20 0 0,2
18.02.2019 01:00:00 8,9 6,5 5 3 11 6 ZW 1017,1 20 0 -
18.02.2019 00:00:00 9,2 7,0 5 3 10 6 ZZW 1017,4 20 0 0,2
17.02.2019 23:00:00 9,1 6,8 9 5 15 8 Z 1018,1 20 0 0,0
17.02.2019 22:00:00 9,2 7,0 9 5 13 7 ZZO 1017,9 20 0 0,2
17.02.2019 21:00:00 9,4 6,8 7 4 13 7 ZO 1017,8 20 0 0,6
17.02.2019 20:00:00 9,7 6,8 3 2 15 8 ZW 1017,9 20 0 1,2
17.02.2019 19:00:00 9,9 6,8 8 4 26 14 WNW 1017,2 20 0 -
17.02.2019 18:00:00 10,1 6,8 14 8 39 21 WNW 1016,8 20 0 0,0
17.02.2019 17:00:00 10,5 6,8 28 15 49 27 WNW 1016,1 20 0 0,0
17.02.2019 16:00:00 10,9 6,4 34 18 45 25 WNW 1015,9 20 0 0,0
17.02.2019 15:00:00 11,2 6,5 36 20 44 24 WNW 1015,9 20 0 0,0
17.02.2019 14:00:00 11,2 6,7 38 21 55 30 WNW 1016,7 20 0 0,0
17.02.2019 13:00:00 11,8 7,6 37 20 52 28 WNW 1017,4 20 0 -
17.02.2019 12:00:00 13,8 5,9 40 22 76 41 W 1017,0 20 0 0,0
17.02.2019 11:00:00 13,7 4,5 56 31 77 41 WZW 1016,2 20 0 0,0
17.02.2019 10:00:00 13,2 3,8 45 24 63 34 WZW 1016,4 20 0 0,0
17.02.2019 09:00:00 12,4 5,1 31 17 49 26 W 1016,7 20 0 0,0
17.02.2019 08:00:00 12,8 4,8 39 21 48 26 W 1015,8 20 0 0,0
17.02.2019 07:00:00 12,6 4,8 27 15 51 28 W 1015,7 20 0 -
17.02.2019 06:00:00 13,4 4,5 41 22 53 29 W 1015,4 20 0 0,0
17.02.2019 05:00:00 13,6 3,9 22 12 36 19 W 1015,8 20 0 0,0
17.02.2019 04:00:00 13,8 2,3 10 5 18 10 NNW 1016,3 20 0 0,0
17.02.2019 03:00:00 13,2 3,8 6 4 35 19 O 1016,8 20 0 0,0
17.02.2019 02:00:00 11,9 4,8 9 5 25 13 W 1017,2 20 0 0,0
17.02.2019 01:00:00 13,0 2,5 16 9 24 13 WZW 1017,3 20 0 -
17.02.2019 00:00:00 12,7 3,0 10 5 19 10 ZZW 1017,6 20 0 0,0
16.02.2019 23:00:00 12,9 5,1 9 5 23 12 ZW 1018,1 20 0 0,0
16.02.2019 22:00:00 11,8 6,1 21 11 25 14 W 1018,6 20 0 0,0
16.02.2019 21:00:00 12,9 7,0 16 8 23 12 W 1018,5 20 0 0,0
16.02.2019 20:00:00 13,1 4,5 11 6 16 9 WNW 1018,5 20 0 0,0
16.02.2019 19:00:00 14,9 1,5 6 3 14 8 WNW 1017,8 20 36 -
16.02.2019 18:00:00 15,3 -0,5 11 6 16 8 O 1017,3 20 60 0,0
16.02.2019 17:00:00 17,8 0,0 10 5 13 7 O 1017,4 20 60 0,0
16.02.2019 16:00:00 18,5 3,6 3 1 16 8 ZZO 1018,1 20 60 0,0
16.02.2019 15:00:00 19,1 2,1 8 4 14 8 OZO 1018,5 7 60 0,0
16.02.2019 14:00:00 19,1 4,5 4 2 8 5 W 1019,6 20 60 0,0
16.02.2019 13:00:00 17,2 3,8 4 2 12 7 OZO 1020,6 20 60 -
16.02.2019 12:00:00 14,7 5,0 4 2 9 5 OZO 1021,3 20 60 0,0
16.02.2019 11:00:00 13,6 1,9 6 3 10 5 WNW 1021,7 20 60 0,0
16.02.2019 10:00:00 12,8 2,1 6 3 8 5 W 1021,8 20 60 0,0
16.02.2019 09:00:00 10,4 3,9 6 3 10 6 WZW 1021,9 20 20 0,0
16.02.2019 08:00:00 11,5 1,5 8 4 27 14 Z 1021,7 20 0 0,0
16.02.2019 07:00:00 11,0 3,0 6 3 30 16 ZZO 1021,7 20 0 -
16.02.2019 06:00:00 11,8 5,0 22 12 29 16 ZO 1022,0 20 0 0,0
16.02.2019 05:00:00 11,9 5,8 12 7 21 12 OZO 1022,8 20 0 0,0
16.02.2019 04:00:00 12,0 6,2 15 8 20 11 O 1023,6 20 0 0,0
16.02.2019 03:00:00 12,2 6,2 16 8 23 13 OZO 1024,1 20 0 0,0
16.02.2019 02:00:00 12,3 5,9 16 9 20 11 ZO 1024,8 20 0 0,0
16.02.2019 01:00:00 12,4 4,6 14 7 17 9 ZO 1025,1 20 0 -
16.02.2019 00:00:00 12,7 6,1 14 8 17 9 OZO 1025,3 20 0 0,0
15.02.2019 23:00:00 13,1 4,5 13 7 15 8 O 1025,6 20 0 0,0
15.02.2019 22:00:00 13,7 2,3 3 2 9 5 WNW 1025,6 20 0 0,0
15.02.2019 21:00:00 14,6 0,0 7 4 11 6 O 1024,7 20 0 0,0
15.02.2019 20:00:00 15,4 -1,2 8 4 18 10 O 1024,5 20 0 0,0
15.02.2019 19:00:00 15,5 -1,7 15 8 19 10 OZO 1023,8 20 0 -
15.02.2019 18:00:00 15,7 0,6 10 5 19 10 OZO 1023,4 20 34 0,0
15.02.2019 17:00:00 17,2 0,0 10 5 15 8 OZO 1023,2 20 60 0,0
15.02.2019 16:00:00 18,4 2,3 3 2 14 7 NO 1023,3 20 60 0,0
15.02.2019 15:00:00 17,9 3,8 6 3 16 9 WNW 1023,7 20 60 0,0
15.02.2019 14:00:00 18,6 7,0 9 5 25 13 WZW 1024,2 20 60 0,0
15.02.2019 13:00:00 17,6 3,4 9 5 13 7 W 1024,5 20 60 -
15.02.2019 12:00:00 16,9 0,0 12 7 19 11 W 1024,4 20 60 0,0
15.02.2019 11:00:00 16,6 -0,7 6 3 13 7 W 1023,9 20 60 0,0
15.02.2019 10:00:00 16,3 -1,0 5 3 19 10 W 1023,2 20 60 0,0
15.02.2019 09:00:00 15,1 -2,0 16 9 21 11 WZW 1022,6 20 26 0,0
15.02.2019 08:00:00 15,4 -3,0 3 2 11 6 ZZW 1021,8 20 0 0,0
15.02.2019 07:00:00 16,1 -3,6 6 3 24 13 ZO 1021,7 20 0 -
15.02.2019 06:00:00 16,0 -3,0 13 7 16 9 Z 1021,5 20 0 0,0
15.02.2019 05:00:00 15,3 -1,2 5 3 13 7 O 1021,4 20 0 0,0
15.02.2019 04:00:00 15,4 -1,2 4 2 16 9 ZW 1021,6 20 0 0,0
15.02.2019 03:00:00 15,7 -1,0 16 9 29 16 ZZW 1021,7 20 0 0,0
15.02.2019 02:00:00 14,6 1,5 7 4 30 16 W 1021,9 20 0 0,0
15.02.2019 01:00:00 14,3 0,9 5 3 18 10 OZO 1021,9 20 0 -
15.02.2019 00:00:00 13,5 2,1 8 4 19 10 ONO 1022,0 20 0 0,0
14.02.2019 23:00:00 14,9 -1,2 9 5 27 15 ZO 1021,8 20 0 0,0
14.02.2019 22:00:00 15,6 -1,4 26 14 38 20 ZZO 1021,3 20 0 0,0
14.02.2019 21:00:00 16,3 -3,3 28 15 40 22 ZZO 1021,1 20 0 0,0
14.02.2019 20:00:00 16,2 -2,0 31 17 40 22 ZO 1021,1 20 0 0,0
14.02.2019 19:00:00 15,4 0,9 29 16 41 22 ZO 1020,9 20 40 -
14.02.2019 18:00:00 13,0 5,0 31 17 43 23 OZO 1020,9 20 60 0,0
14.02.2019 17:00:00 13,7 5,1 31 17 46 25 OZO 1020,9 20 60 0,0
14.02.2019 16:00:00 14,0 7,1 30 16 38 21 OZO 1021,3 20 60 0,0
14.02.2019 15:00:00 14,5 7,3 21 11 26 14 O 1021,9 20 60 0,0
14.02.2019 14:00:00 16,0 1,7 14 7 17 9 O 1022,8 20 60 0,0
14.02.2019 13:00:00 16,4 0,9 9 5 16 9 O 1023,7 20 60 -
14.02.2019 12:00:00 15,6 0,6 3 2 7 4 NW 1024,3 20 60 0,0
14.02.2019 11:00:00 15,3 2,5 3 1 7 4 W 1024,5 20 60 0,0
14.02.2019 10:00:00 13,9 1,5 6 3 10 5 ZO 1024,5 20 60 0,0
14.02.2019 09:00:00 11,5 -0,3 7 4 18 10 ZZO 1024,6 20 27 0,0
14.02.2019 08:00:00 10,9 0,0 11 6 15 8 Z 1024,4 20 0 0,0
14.02.2019 07:00:00 11,1 0,4 8 4 22 12 ZZO 1024,6 20 0 -
14.02.2019 06:00:00 11,1 0,4 11 6 18 10 Z 1024,8 20 0 0,0
14.02.2019 05:00:00 12,4 0,2 9 5 21 11 O 1024,6 20 0 0,0
14.02.2019 04:00:00 11,3 0,6 10 5 14 8 ZO 1025,0 20 0 0,0
14.02.2019 03:00:00 11,2 1,1 7 4 25 14 ZZO 1025,3 20 0 0,0
14.02.2019 02:00:00 11,6 1,5 16 9 24 13 ZZO 1025,4 20 0 0,0
14.02.2019 01:00:00 12,6 1,3 20 11 29 16 ZZO 1025,8 20 0 -
14.02.2019 00:00:00 12,5 0,6 23 12 33 18 ZZO 1026,1 20 0 0,0
13.02.2019 23:00:00 12,2 0,6 23 13 32 18 ZO 1026,2 20 0 0,0
13.02.2019 22:00:00 11,8 1,5 23 12 29 16 ZZO 1026,5 20 0 0,0
13.02.2019 21:00:00 11,8 1,9 21 11 26 14 ZZO 1026,6 20 0 0,0
13.02.2019 20:00:00 12,0 2,1 19 11 23 13 ZO 1026,6 20 0 0,0
13.02.2019 19:00:00 12,1 2,3 18 10 21 11 ZO 1026,6 20 40 -
13.02.2019 18:00:00 13,6 3,4 14 8 18 10 OZO 1026,5 20 60 0,0
13.02.2019 17:00:00 14,3 5,1 12 7 16 9 OZO 1026,6 20 60 0,0
13.02.2019 16:00:00 14,9 5,6 10 5 15 8 O 1026,5 20 60 0,0
13.02.2019 15:00:00 14,8 6,5 4 2 13 7 ONO 1026,8 20 60 0,0
13.02.2019 14:00:00 15,8 5,5 6 3 11 6 WNW 1026,9 20 60 0,0
13.02.2019 13:00:00 - - - - - - - - - - -
13.02.2019 12:00:00 15,6 2,7 6 3 11 6 ZW 1027,5 20 60 0,0
13.02.2019 11:00:00 13,3 6,7 5 3 - - WZW 1027,5 20 - -
13.02.2019 10:00:00 12,2 3,2 9 5 16 9 ZZW 1027,5 20 60 0,0
13.02.2019 09:00:00 10,6 4,6 9 5 14 8 ZW 1027,4 20 22 0,0
13.02.2019 08:00:00 10,3 3,0 12 6 16 9 ZZW 1027,2 20 0 0,0
13.02.2019 07:00:00 10,1 3,4 1 1 7 4 Z 1027,2 20 0 -
13.02.2019 06:00:00 9,5 3,4 5 3 14 7 Z 1027,1 20 0 0,0
13.02.2019 05:00:00 9,6 4,6 5 3 10 6 ZO 1027,3 20 0 0,0
13.02.2019 04:00:00 9,3 6,2 4 2 8 4 OZO 1027,6 20 0 0,0
13.02.2019 03:00:00 9,1 6,2 4 2 22 12 WZW 1027,9 20 0 0,0
13.02.2019 02:00:00 9,3 6,4 18 10 26 14 ZO 1028,0 20 0 0,0
13.02.2019 01:00:00 9,2 6,1 16 9 27 15 ZO 1028,3 20 0 -
13.02.2019 00:00:00 9,4 6,2 16 9 29 16 OZO 1028,4 20 0 0,0
12.02.2019 23:00:00 9,6 6,2 21 11 42 23 ZO 1028,5 20 0 0,0
12.02.2019 22:00:00 9,8 6,5 26 14 48 26 ZO 1028,4 20 0 0,0
12.02.2019 21:00:00 10,2 6,5 31 17 43 23 ZO 1028,5 20 0 0,0
12.02.2019 20:00:00 10,5 6,7 30 16 46 25 ZO 1028,8 20 0 0,0

tt = temperatuur
td = dauwpunt
ff = windsnelheid
fx = windstoten
dd = windrichting
ppp = luchtdruk
vv = zicht
sd = Zonneschijnduur
rr = neerslag

Weerstations in de omgeving